Regional Weather Roundup
Issued by NWS

Home | Current Version | Previous Version | Graphics & Text | Print | Product List | Glossary On
Versions: 1 2 3 4 5 6 7 8 9 10 11 12 13 14 15 16 17 18 19 20 21 22 23 24 25 26 27 28 29 30 31 32 33 34 35 36 37 38 39 40 41 42 43 44 45 46 47 48 49 50
000
ASUS43 KIND 201610
RWRIN

WEATHER ROUNDUP FOR INDIANA
NATIONAL WEATHER SERVICE INDIANAPOLIS IN
1200 PM EDT SUN AUG 20 2017

NOTE: "FAIR" INDICATES FEW OR NO CLOUDS BELOW 12,000 FEET WITH NO
SIGNIFICANT WEATHER AND/OR OBSTRUCTIONS TO VISIBILITY.

* - STATION DOES NOT REPORT WEATHER SUCH AS PRECIPITATION OR FOG.

+ - STATION NOT QUALITY CONTROLLED BY THE NATIONAL WEATHER SERVICE.
    USE DATA WITH CAUTION...ESPECIALLY DEWPOINT AND RELATIVE
    HUMIDITY OBSERVATIONS.

INZ001>003-010>013-019-020-201700-
NORTHWEST INDIANA

CITY           SKY/WX    TMP DP  RH WIND       PRES   REMARKS
GARY /AIRPORT/ PTSUNNY   82  63  51 S12       30.07S
KNOX *+        MOSUNNY   79  64  61 SW3       30.08S
LA PORTE +     SUNNY     79  64  58 S6        30.09F
MICHIGAN CITY+ SUNNY     81  63  54 SW7       30.08F
MONTICELLO +   SUNNY     80  68  65 SW3       30.07S
RENSSELAER +   SUNNY     81  64  57 S6        30.08S
VALPARAISO     SUNNY     81  68  64 S7        30.09S

$$

LMZ046-743>745-201700-
SOUTHERN LAKE MICHIGAN

STATION/POSITION TIME  TEMP    WIND        PRES    WAVE
                       AIR SEA DIR/SP/G            HT
                 (UTC) (F)     (DEG/KT/KT) (MB)    (FT)
BURNS HARBOR     1540   79     180/  6/ 11 1018.3F
MICHIGAN CITY    1540   77     180/  9/ 10   N/A
5NW MICH CITY    1600   77 74  190/  6/  8   N/A     1

$$

INZ004-005-014>016-021>024-201700-
NORTH CENTRAL INDIANA

CITY           SKY/WX    TMP DP  RH WIND       PRES   REMARKS
ELKHART        SUNNY     81  61  50 S7        30.10R
GOSHEN         SUNNY     79  61  53 SW6       30.10R
LOGANSPORT +   SUNNY     79  68  69 CALM      30.08F
PERU/GRISSOM   SUNNY     81  70  68 W5        30.07F
ROCHESTER +    SUNNY    N/A N/A N/A CALM      30.09F
SOUTH BEND     SUNNY     81  62  52 S9        30.09S
WARSAW +       SUNNY     79  64  61 CALM      30.10S

$$

INZ006>009-017-018-025>027-201700-
NORTHEAST INDIANA

CITY           SKY/WX    TMP DP  RH WIND       PRES   REMARKS
AUBURN +       SUNNY     79  61  53 CALM      30.12R
FORT WAYNE     MOSUNNY   81  65  58 S8        30.10S
HUNTINGTON +   SUNNY     80  67  64 CALM      30.09F

$$

INZ028-029-035-036-043>045-051>053-201700-
WEST CENTRAL INDIANA

CITY           SKY/WX    TMP DP  RH WIND       PRES   REMARKS
GREENCASTLE +  SUNNY     82  70  65 S7        30.09S
LAFAYETTE      CLOUDY    82  69  64 S7        30.06S
TERRE HAUTE    CLOUDY    86  72  62 S8        30.07R

$$

INZ030>032-037>040-046>048-054>057-064-065-201700-
CENTRAL INDIANA

CITY           SKY/WX    TMP DP  RH WIND       PRES   REMARKS
CP ATTERBURY + SUNNY     86  64  48 SW5       30.10S
FRANKFORT +    PTSUNNY   85  72  63 SW5       30.09F
GREENWOOD *+   SUNNY     83  66  56 SW3       30.09S
INDIANAPOLIS   MOSUNNY   84  66  54 CALM      30.08R
-EAGLE CREEK   SUNNY     85  65  51 VRB3      30.07S
KOKOMO +       SUNNY     81  70  69 CALM      30.09S
MARION +       SUNNY     81  68  65 CALM      30.10S
MT COMFORT *+  SUNNY     81  70  69 CALM      30.09S
SHELBYVILLE    SUNNY     83  70  64 SW7       30.09R
ZIONSVILLE +   SUNNY     82  68  62 CALM      30.09S

$$

INZ033-034-041-042-049-050-058-059-201700-
EAST CENTRAL INDIANA

CITY           SKY/WX    TMP DP  RH WIND       PRES   REMARKS
MUNCIE         SUNNY     83  68  60 VRB3      30.09S
RICHMOND +     MOSUNNY   81  72  74 SW7       30.12S

$$

INZ060-061-067>069-081>083-085>088-201700-
SOUTHWEST INDIANA

CITY           SKY/WX    TMP DP  RH WIND       PRES   REMARKS
EVANSVILLE     MOSUNNY   83  72  69 VRB5      30.08S
HUNTINGBURG +  PTSUNNY   79  73  82 MISG      30.09S
WASHINGTON +   SUNNY     85  68  56 MISG      30.07S

$$

INZ062-063-066-070>080-084-089>092-201700-
SOUTH CENTRAL AND SOUTHEAST INDIANA

CITY           SKY/WX    TMP DP  RH WIND       PRES   REMARKS
BEDFORD +      CLOUDY    82  70  65 SW6       30.09S
BLOOMINGTON    MOSUNNY   87  68  52 VRB5      30.09R
MADISON *+     MOSUNNY   84  68  58 SW8       30.13R
NORTH VERNON + SUNNY     82  70  65 SW6       30.11R
SEYMOUR +      PTSUNNY   86  70  58 CALM      30.10R

$$




USA.gov is the U.S. government's official web portal to all federal, state and local government web resources and services.